[Date Prev][Date Next][Thread Prev][Thread Next][Date Index][Thread Index]

[jamsat-news:1437] jas2info  #214



========================   最新情報   ==============================

        Last updated :Tue.20FEB2001  20:00 (JST) #214
        
====================================================================
   
  1)アマチュア通信衛星情報、FOシリーズの軌道要素、テレメトリ、QSOの
   状況等をまとめてみました.
   
   FO−29の2001年2月20日(火)の19:37(JST)のパスでは
  JARLのホームページのとうりアナログ運用でした。今まで観測したテレメトリーと
  分析結果を掲載しておきます.

AS22286C1   Tue.20FEB2001
19:38-19:46(JST)
Freq.435.798-.793MHz

HI HI AE 07 88 55 00 D4 00 00 09 00 93 59 00 88 83 82 8E 78 AB A9 A9 A8 AA 
HI HI AE 07 88 55 00 D4 00 00 09 00 93 5A 00 88 83 82 8E 89 AB A9 A9 A8 AA 
HI HI AE 07 88 55 00 D4 00 00 09 00 93 60 00 8A 83 82 8D 70 AB A9 A9 A8 AA 
HI HI AE 07 88 55 00 D4 00 00 09 00 92 67 00 89 83 82 8D 7B AB AA A9 A8 AA 
HI HI AE 07 88 55 00 D4 00 00 08 00 91 6E 00 89 83 82 8D 82 AB AA A9 A8 AA 
HI HI AE 07 88 55 00 D4 00 00 09 00 8F 74 00 89 82 82 8D 8A AB AA AA A8 AA 
HI HI AE 07 88 55 00 D4 00 00 08 00 8D 7B 00 88 82 81 8C 89 AB AA AA A8 AA 
HI HI AE 07 88 55 00 D4 00 00 09 00 8A 81 00 88 82 81 8D 83 AB AA AA A9 AA 

AS22281C1   Tue.20FEB2001
12:04-10:20(JST)
Freq.435.804-.787MHz

HI HI AE 07 88 55 00 D4 BF FB 09 49 4D 59 80 5F 92 8F B0 73 AD AA AC AD AB 
HI HI AE 07 88 55 00 D4 BF FB 09 49 4D 52 80 60 92 8F B0 74 AD A9 AC AD AB 
HI HI AE C7 88 55 00 D4 BF FB 09 49 4D 4B 81 5F 91 8F B0 85 AC A9 AC AD AB 
HI HI AE C7 88 55 00 D4 BF FB 09 49 4E 45 83 5F 91 90 B0 81 AC A9 AC AD AB 
HI HI AE C7 88 55 00 D4 BF FB 09 49 51 3F 85 5F 91 8F AF 7D AC A9 AB AC AB 
HI HI AE C7 88 55 00 D4 BF FB 09 49 55 3A 86 60 91 90 B0 80 AC A9 AB AC AA 
HI HI AE C7 88 55 00 D4 BF FB 09 49 5A 35 87 5F 91 8F B0 81 AC A9 AB AC AB 
HI HI AE C7 88 55 00 D4 BF FB 09 49 61 31 88 60 92 90 B0 63 AC A9 AB AC AB 
HI HI AE C7 88 55 00 D4 BF FB 09 49 68 2F 87 5F 91 8F B0 73 AC A8 AB AC AB 
HI HI AE C7 88 55 00 D4 BF FB 09 49 6F 2E 86 5F 91 8F B0 91 AB A8 AA AB AB 
HI HI AE C7 88 55 00 D4 BF FB 09 49 77 2E 85 5F 91 8F B0 81 AB A8 AA AC AB 
HI HI AE C7 88 55 00 D4 BF FB 09 49 7F 31 86 60 92 91 B0 91 AB A8 AA AB AA 
HI HI AE C7 88 55 00 D4 BF FB 09 49 87 34 86 60 92 90 B0 81 AB A8 AA AB AB 
HI HI AE C7 88 55 00 D4 BF FB 09 49 8D 36 85 60 91 8F AF 66 AB A7 A9 AB AB 
HI HI AE C7 88 55 00 D4 BF FB 09 49 93 3A 84 5F 91 8F B0 7D AB A7 A9 AB AB 
HI HI AE C7 88 55 00 D4 BF FB 09 49 99 40 82 5F 91 8F B0 74 AB A7 A9 AB AB 
HI HI AE C7 88 55 00 D4 BF FB 09 49 9E 47 7E 5F 91 8F B0 7C AB A7 A9 AB AB 
HI HI AE C7 88 55 00 D4 BF FB 09 49 A2 4E 79 5F 91 8F B0 67 AB A7 A9 AB AA 
HI HI AE C7 88 55 00 D4 BF FB 09 49 A5 54 76 5F 91 8F B0 6F AB A6 A9 AB AA 
HI HI AE C7 88 55 00 D4 BF FB 09 49 A7 5C 6F 5F 91 8F B0 59 AB A6 A8 AB AA 
HI HI AE C7 88 55 00 D4 BF FB 09 49 A8 63 68 5F 91 8F B0 7A AB A6 A8 AB AA 
HI HI AE C7 88 55 00 D4 BF FB 09 49 A9 6A 61 5F 91 90 B0 72 AB A6 A8 AB AA 
HI HI AE C7 88 55 00 D4 33 60 09 51 A9 71 5F 5F 91 8F B0 67 AA A6 A8 AB AA 
HI HI AE C7 88 55 00 D4 33 60 09 51 A8 78 5D 5F 91 90 B0 68 AA A5 A8 AB AA 

AS22268C1    Mon.19FEB2001
11:03-11:15(JST)
FREQ.435.801-.790MHz

HI HI AE C7 88 55 00 D4 00 00 09 00 5A 48 7F 5F 91 8F B0 6E A6 AA B1 AE AB 
HI HI AE 07 88 55 00 D4 00 00 09 00 5A 3D 7F 5F 91 90 B0 76 A6 AA B1 AD AB 
HI HI AE C7 88 55 00 D4 00 00 09 00 5B 35 80 5F 91 8F B0 77 A6 AA B1 AE AB 
HI HI AE C7 88 55 00 D4 00 00 09 00 5D 2F 82 60 92 90 B0 7A A6 A9 B1 AD AB 
HI HI AE C7 88 55 00 D4 00 00 09 00 5E 2D 83 5F 91 90 B0 7A A6 A9 B0 AD AB 
HI HI AE C7 88 55 00 D4 00 00 09 00 5F 30 86 5F 91 8F B0 6F A5 A9 B1 AD AB 
HI HI AE K7 88 55 00 D4 00 00 09 00 5F 38 88 5F 91 8F B0 6B A5 A9 B0 AD AB 
HI HI AE C7 88 55 00 D4 00 00 09 00 5E 39 88 5F 91 8F B0 78 A5 A9 B0 AD AB 
HI HI AE C7 88 55 00 D4 00 00 09 00 65 43 88 5F 91 8F B0 85 A5 A9 B0 AD AB 
HI HI AE C7 88 55 00 D5 00 00 09 00 68 25 87 5F 91 8F B1 62 A5 A8 B0 AD AB 
HI HI AE C7 88 55 00 D4 00 00 00 00 75 5D 86 5F 91 8F B0 70 A5 A8 B1 AC AB 
HI HI AE C7 88 55 00 D4 00 00 09 00 57 6C 84 5F 91 8F B0 90 A4 A8 B0 AC AB 
HI HI AE C7 88 55 00 D4 00 00 09 00 53 6B 83 5F 91 8F B0 78 A4 A8 B0 AC AB 
HI HI AE C7 88 55 00 D4 00 00 09 00 50 88 81 5F 91 8F B0 62 A4 A8 B0 AC AB
  
AS22241C1   Sat.17Feb2001
11:14-11:18(JST)
Freq.435.792-.789MHz

HI HI AE C7 88 55 00 D4 9E 24 09 0B 30 4C 74 60 92 90 B0 7D A8 AA AC A7 AA 
HI HI AE C7 88 55 00 D4 9E 24 09 0B 2E 4A 71 60 92 90 B0 49 A8 A9 AC A7 AA 
HI HI AE C7 88 55 00 D4 9E 24 09 0B 2D 49 6A 60 92 90 B0 6E A8 A9 AC A7 AA 
HI HI AE C7 88 55 00 D4 9E 24 09 0B 2C 4B 67 60 92 90 B0 6D A8 A9 AC A7 AA 
HI HI AE C7 88 55 00 D4 9E 24 09 0B 2B 51 64 60 92 90 B0 7E A7 A9 AC A7 AA 
HI HI AE C7 88 55 00 D4 9E 24 09 0B 2A 54 61 60 92 90 B0 7E A7 A9 AC A7 AA 
  
 ------------------------ FO-29の軌道要素 ------------------------------        
 
  ■ 軌道要素1:「jamsat−keps:1072より         
          SB KEPS @ AMSAT  $ORB01039.N
          2Line Orbital Elements 01039.AMSAT

HR AMSAT ORBITAL ELEMENTS FOR AMATEUR SATELLITES IN NASA FORMAT
FROM WA5QGD FORT WORTH,TX February 8, 2001
SEND SUBSCRIBE/UNSUBSCRIBE TO majordomo@amsat.org ONLY
BID: ORB01039.N

 DECODE 2-LINE ELSETS WITH THE FOLLOWING KEY:
 1 AAAAAU 00  0  0 BBBBB.BBBBBBBB  .CCCCCCCC  00000-0  00000-0 0  DDDZ
 2 AAAAA EEE.EEEE FFF.FFFF GGGGGGG HHH.HHHH III.IIII JJ.JJJJJJJJKKKKKZ
 KEY: A-CATALOGNUM B-EPOCHTIME C-DECAY D-ELSETNUM E-INCLINATION F-RAAN
 G-ECCENTRICITY H-ARGPERIGEE I-MNANOM J-MNMOTION K-ORBITNUM Z-CHECKSUM

 FO-29
1 24278U 96046B   01038.69218209  .00000013  00000-0  51060-4 0  3913
2 24278  98.5667 281.3523 0350916 337.4408  21.1622 13.52758084221139

 ■ 軌道要素2:「jamsat−keps:1073」より                    
         SB KEPS @ AMSAT  $ORB01039.O
Orbital Elements  01039.OSCAR

HR AMSAT ORBITAL ELEMENTS FOR OSCAR SATELLITES
FROM WA5QGD FORT WORTH,TX February 8, 2001
SEND SUBSCRIBE/UNSUBSCRIBE TO majordomo@amsat.org ONLY
BID: ORB01039.O
TO ALL RADIO AMATEURS BT
 
 Satellite: FO-29
Catalog number: 24278
Epoch time:      01038.69218209
Element set:     391
Inclination:       98.5667 deg
RA of node:       281.3523 deg
Eccentricity:    0.0350916
Arg of perigee:   337.4408 deg
Mean anomaly:      21.1622 deg
Mean motion:   13.52758084 rev/day
Decay rate:        1.3e-07 rev/day^2
Epoch rev:           22113
Checksum:              295
  
-------------------  FO-29(JAS-2)のテレメトリに関する情報  ---------------------- 
 
2)上記テレメトリー2月20日のテレメトリ最終行を分析しておきます.
 
 AS22286C1   Tue.20FEB2001
 19:38-19:46(JST)
 Freq.435.798-.793MHz

 HI HI AE 07 88 55 00 D4 00 00 09 00 8A 81 00 88 82 81 8D 83 AB AA AA A9 AA 
 
テレメトリ   内 容       換算算値 単 位  
3C	磁気センサーZ軸=	67647.0	[nT]
3D	磁気センサX軸	=	63235.3	[nT]
4A	太陽電池発生電流=	  0.0	[mA]
4B	B充放電電流	=	  665.6	[mA]
4C	B端子電圧	=	   14.0	[V]
4D	B中間端子電圧	=	    6.2	[V]
5A	バス電圧	=	   13.8	[V]
5B	JTA送信電力	=	  753.4	[mW]
5C 	構体温度1	=	   15.5	[℃]
5D	構体温度2	=	   15.9	[℃]
6A	構体温度3	=	   15.9	[℃]
6B	構体温度4	=	   16.2	[℃]
6C	Bセル温度	=	   15.9	[℃]
   	
 ===========================  FO-29(ふじ3号)のQSO情報等 ======================
   
 3)[jamsat-bb:

 ===============================================================================
   4)JARL のホームページに運用予定が記載されていましたのでご紹介します.
       ( http://www.jarl.or.jp/Japanese/3_Fuji/new/uy.htm )

        ■ ふじ3号/FOー29/JAS-2 ■  
   
     *** 運用予定について ***

     2月1日 〜 4月2日 アナログ系運用

  *なお,運用予定は都合により変更することがありますので予めご了承願います。

 照会先 : lab@jarl.or.jp

 最新の情報はテレホンサービス(03−3942−1000)をお聞きください。  
 以後の運用につきましては平成13年4月上旬にお知らせ致します。    
    
-----------------------    FO−20(JAS-1b)道要素   -------------------------
  5)
  ■ 軌道要素1 :出典はFO-29「ふじ3号」に同じ.
  
 FO-20
1 20480U 90013C   01038.82941173  .00000018  00000-0  12080-3 0 03148
2 20480 099.0711 131.3775 0539649 242.0239 112.5254 12.83287397515504
 
  ■ 軌道要素2 :出典はFO−29「ふじ3号」に同じ.
               
  Satellite: FO-20
Catalog number: 20480
Epoch time:      01038.82941173
Element set:    0314
Inclination:      099.0711 deg
RA of node:       131.3775 deg
Eccentricity:    0.0539649
Arg of perigee:   242.0239 deg
Mean anomaly:     112.5254 deg
Mean motion:   12.83287397 rev/day
Decay rate:        1.8e-07 rev/day^2
Epoch rev:           51550
Checksum:              289
 
 --------------------------------------------------------------------------------
 
         ■ ふじ2号/FO−20/JAS-1b ■      
            
          「ふじ2号」 現況                                                                                  
             
   JAS-1b(ふじ2号)のCWテレメトリ信号に,1997年10月12日12時(JST)の
 日本上空通過時,3桁の数字が繰り返されるはずが3個の長音の繰り返しとなっているという
 異常が発見されました。この不具合は次の通過時からは回復していましたが13日15時20分の
 通過時に再び観測されました。現在はA0の送信が続いています。衛星のアナログ系中継モード
 動作は異常が無く,正常時のテレメトリ内容からは衛星の動作に異常は認められません。従って,
 直ちに衛星のミッションに影響することは無いと予想されますので,当面はアナログ系中継
 モードを継続します。衛星は既に打ち上げてから7年8ヶ月を経ておりますので,今後は監視を
 強化する予定です。アマチュア各位のレポートをお待ちします。
 -------------------------------------------------------------------------------- 
  1997年10月14日 00時35分 確認のテレメトリ音 151 KB (A0) 
  1997年10月14日 11時10分 確認のテレメトリ音 216 KB (異常キーイング) 

  以上 JARLのホ−ムページの http://www.jarl.or.jp/Japanese/3_Fuji/new/fuji.htm

===================== FO-20 ふじ2号 のテレメトリ観測結果 ====================

   12月22日(金)の12:21(JST)のパスの観測結果では以前観測した
 単一周波数のドップラー効果で周波数がずれていくのみの状態に戻っておりました。
                                         
   =============   JAS-2 (ふじ3号)と現在までの情報   ===========
  
  A.電話によるふじ3号の運用情報
      社団法人日本アマチュア連盟によるサービス
           TEL .   03− 3942 − 1000
  B.アマチュア無線FAXサービス
      JARLによるふじ3号の軌道情報(オービットカレンダー)
         FAX No.  03− 3233 −0055
  C.WWWブラウザで情報を簡単に見れる人のためにJAS−2
     ふじ3号の衛星としての運用されるまでの名前)の概要、打ち上げ
     までの状況、運用中における状況を説明したホームページを紹介し
     ておきます.
     社団法人日本アマチュア無線連盟(JARL)のホームページ

          http://www.jarl.or.jp/Japanese/3_Fuji/jasmenu.htm
 
     宇宙開発事業団(NASDA)ホームページ 
          http://www.nasda.go.jp/
         打上げ衛星 :地球観測プラットフォーム技術衛星(ADEOS) 
                       アマチュア衛星3号(JAS-2)
          http://yyy.tksc.nasda.go.jp/Home/Press/Press-j/jas-2_j.html        

  D.JAMSATによる軌道情報の活用
        JAMSATのホームページまたはjamsat−kepsの軌道要素より
      衛星の軌道情報を得る.
     JAMSATホームページ
               URL    http://www.jamsat.or.jp
       上記ホームページでは各地で行われるアマチュア通信衛星に関する
      ミューティングのお知らせや世界のアマチュア衛星に関する情報が
      満載されています.
 ========================================================================  
     JAMSATのメンバーのご協力によりJH6MME(高山 秀造)が
    執筆・編集を担当しております.ご指摘の意見、疑問やこのようにしたら
    というアイデアがありましたら小さなことでもかまいませんので気軽に下
    記アドレスまでご連絡ください.jamsat−newsからjas2
    infoへの転載をJH4PHW局坂井さんに担当して頂いております.  
                  E-mail : jh6mme@jamsat.or.jp : jh4phw@jamsat.or.jp
 ===============================   END  ===============================